Gulkana, AK

8:08 PM AKDT on April 26, 2017 (GMT -0800)
Gulkana

Weather History for PAGK - October, 2014

Change the Weather History Date:

Friday, October 31, 2014

  Actual Average Record
Temperature  
Mean Temperature 4 °F -  
Max Temperature 18 °F 22 °F 47 °F (1954)
Min Temperature -9 °F 9 °F -17 °F (1956)
Degree Days  
Heating Degree Days 60    
Moisture  
Dew Point 10 °F    
Average Humidity 88    
Maximum Humidity 95    
Minimum Humidity 77    
Precipitation  
Precipitation 0.00 in - - ()
Sea Level Pressure  
Sea Level Pressure 29.43 in    
Wind  
Wind Speed 1 mph (East)    
Max Wind Speed 8 mph    
Max Gust Speed -    
Visibility 10 miles    
Events      
Averages and records for this station are not official NWS values.
T = Trace of Precipitation, MM = Missing Value Source: NWS Daily Summary

Daily Weather History Graph

Daily Weather History Graph

Search for Another Location

Airport or City:

Trip Planner

Search our weather history database for the weather conditions in past years. The results will help you decide how hot, cold, wet, or windy it might be!

Date:

Astronomy

Oct. 31, 2014 Rise Set
Actual Time 9:11 AM AKDT 5:37 PM AKDT
Civil Twilight 8:23 AM AKDT 6:26 PM AKDT
Nautical Twilight 7:30 AM AKDT 7:19 PM AKDT
Astronomical Twilight 6:38 AM AKDT 8:10 PM AKDT
Moon 3:49 PM AKDT (10/31) 12:08 AM AKDT (10/31)
Length of Visible Light 10h 03m
Length of Day
8h 25m
First Quarter, 58% of the Moon is Illuminated
Oct 31
First Quarter
Nov 6
Full
Nov 14
Last Quarter
Nov 22
New
Nov 29
First Quarter

Hourly Weather History & Observations

Time (AKDT) Temp. Windchill Dew Point Humidity Pressure Visibility Wind Dir Wind Speed Gust Speed Precip Events Conditions
12:53 AM 7.0 °F - 3.9 °F 87% 29.52 in 10.0 mi Calm Calm - N/A   Overcast
1:53 AM 9.0 °F - 5.0 °F 84% 29.52 in 10.0 mi Calm Calm - N/A   Overcast
2:53 AM 10.0 °F - 6.1 °F 84% 29.49 in 10.0 mi Calm Calm - N/A   Overcast
3:53 AM 10.0 °F - 6.1 °F 84% 29.48 in 10.0 mi Calm Calm - N/A   Overcast
4:53 AM 10.0 °F - 6.1 °F 84% 29.48 in 10.0 mi Calm Calm - N/A   Overcast
5:53 AM 10.0 °F 3.6 °F 7.0 °F 87% 29.49 in 10.0 mi North 3.5 mph - N/A   Overcast
6:38 AM 10.0 °F - 7.0 °F 87% 29.33 in 10.0 mi Calm Calm - N/A   Overcast
6:53 AM 10.0 °F 3.6 °F 6.1 °F 84% 29.47 in 10.0 mi NW 3.5 mph - N/A   Overcast
7:53 AM 9.0 °F - 6.1 °F 88% 29.48 in 10.0 mi Calm Calm - N/A   Mostly Cloudy
8:53 AM 8.1 °F 1.4 °F 5.0 °F 87% 29.48 in 10.0 mi Variable 3.5 mph - N/A   Overcast
9:53 AM 10.9 °F - 8.1 °F 88% 29.46 in 10.0 mi Calm Calm - N/A   Overcast
10:53 AM 12.0 °F - 9.0 °F 88% 29.47 in 10.0 mi Calm Calm - N/A   Overcast
11:53 AM 12.0 °F - 9.0 °F 88% 29.47 in 10.0 mi Calm Calm - N/A   Overcast
12:53 PM 12.9 °F - 10.0 °F 88% 29.47 in 10.0 mi Calm Calm - N/A   Mostly Cloudy
1:08 PM 15.1 °F 7.7 °F 10.9 °F 84% 29.32 in 10.0 mi SSW 4.6 mph - N/A   Mostly Cloudy
1:53 PM 16.0 °F 10.4 °F 12.9 °F 88% 29.45 in 10.0 mi ESE 3.5 mph - N/A   Overcast
2:40 PM 15.1 °F 4.2 °F 12.0 °F 88% 29.32 in 10.0 mi SSE 8.1 mph - N/A   Overcast
2:53 PM 16.0 °F 10.4 °F 12.9 °F 88% 29.44 in 10.0 mi Variable 3.5 mph - N/A   Overcast
3:53 PM 16.0 °F 8.8 °F 12.9 °F 88% 29.44 in 10.0 mi SSE 4.6 mph - N/A   Overcast
4:53 PM 15.1 °F - 12.9 °F 91% 29.43 in 10.0 mi Calm Calm - N/A   Overcast
5:35 PM 15.1 °F 9.4 °F 12.9 °F 91% 29.30 in 10.0 mi South 3.5 mph - N/A   Overcast
5:53 PM 14.0 °F - 12.9 °F 95% 29.43 in 10.0 mi Calm Calm - N/A   Overcast
6:53 PM 12.9 °F - 10.9 °F 92% 29.43 in 10.0 mi Calm Calm - N/A   Overcast
7:25 PM 14.0 °F - 10.9 °F 88% 29.30 in 10.0 mi Calm Calm - N/A   Overcast
7:53 PM 14.0 °F 6.5 °F 12.0 °F 92% 29.43 in 10.0 mi NE 4.6 mph - N/A   Overcast
8:28 PM 14.0 °F 8.2 °F 12.0 °F 92% 29.30 in 10.0 mi NNE 3.5 mph - N/A   Overcast
8:44 PM 15.1 °F - 12.9 °F 91% 29.30 in 7.0 mi Calm Calm - N/A   Overcast
8:53 PM 15.1 °F 9.4 °F 12.9 °F 91% 29.44 in 9.0 mi North 3.5 mph - N/A   Overcast
9:53 PM 14.0 °F - 12.0 °F 92% 29.43 in 10.0 mi Calm Calm - N/A   Overcast
10:53 PM 14.0 °F - 12.0 °F 92% 29.43 in 10.0 mi Calm Calm - N/A   Overcast
11:53 PM 14.0 °F - 12.0 °F 92% 29.44 in 10.0 mi Calm Calm - N/A   Overcast